Back to catalog

SL-8 R/B

AliveLEO
NORAD 3819·ROCKET BODY·🇷🇺 Russia

Launched Mar 17, 1969 from Plesetsk Cosmodrome

Loading…

Next Passes (next 24 hours)

TLE

FreshSource: Space-Track

Epoch: Sep 14, 2026, 21:04 UTC

1 03819U 69024B   26257.87835882 -.00000092  00000-0 -18234-3 0  9997
2 03819  73.9885  37.3503 0010144 206.4501 319.9661 13.19592271768716

Track SL-8 R/B in real time with AllMySat

Download on the App Store